Location: Cruquius
(52.3348°N, 4.6319°E)
Time: 19:59:36
(UTC+00:00)

Cosmos 1515 Rocket - Pass Details

Date: 12 May 2021
Orbit: 606 x 630 km, 82.5° (Epoch: 21 June)

Event Time Altitude Azimuth Distance (km) Brightness Sun altitude
Exits shadow 20:45:53 - 181° (S) 2,348 6.1 -10.1°
Reaches altitude 10° 20:46:46 10° 180° (S) 1,988 5.7 -10.2°
Maximum altitude 20:51:09 69° 98° (E) 668 3.5 -10.6°
Drops below altitude 10° 20:55:31 10° 15° (NNE) 1,989 6.7 -11.0°
Sets 20:57:45 0° 13° (NNE) 2,896 7.6 -11.2°
